Find Starlink 31540

NORAD ID: 59542 Int'l Des: 2024-074 Owner: SPXS Country: US Constellation: starlink operational
LEOCIRCULAR

現在のビュー

3D地球を読み込み中...

About Starlink 31540

Starlink 31540 (NORAD 59542) is a starlink constellation satellite (v2 mini) launched Apr 18, 2024 by SPXS of US. It operates in LEO, CIRCULAR orbit with a mass of 730.00 kg.

Starlink 31540について

説明を読み込み中...

次回通過

Passes for default location (London). Set your location on the main map for personalized predictions.

高度履歴

Loading altitude history...

軌道要素

1 59542U 24074J 26167.66439866 .00001196 00000-0 52984-4 0 9991
2 59542 43.0009 144.3519 0001588 245.4536 114.6150 15.27577149121157
Epoch: Jun 16, 2026 • Age: 41 hours

現在のステータス

高度 487.1 km
速度 7.63 km/s
衛星直下点 42.70°N, 169.3°W
打ち上げ日 Apr 18, 2024
運用期間 2.1 years
タイプ internet

技術仕様

分類 Payload
質量 730.00 kg
乾燥質量 700.00 kg
総質量 730.00 kg
長さ 0.30 m
直径 4.10 m
スパン 29.00 m
形状 Box + pan
製造者 SPXS
バスタイプ Starlink V2M
フェーズステータス In Orbit
所有者/国 SPXS/US

Most Searched